Regional Weather Roundup
Issued by NWS Sterling, VA

Home | Current Version | Previous Version | Text Only | Print | Product List | Glossary Off
Versions: 1 2 3 4 5 6 7 8 9 10 11 12 13 14 15 16 17 18 19 20 21 22 23 24 25 26 27 28 29 30 31 32 33 34 35 36 37 38 39 40 41 42 43 44 45 46 47 48 49 50

000
ASUS41 KLWX 111110
RWRLWX

REGIONAL WEATHER ROUNDUP
NATIONAL WEATHER SERVICE BALTIMORE MD/WASHINGTON DC
700 AM EDT FRI JUL 11 2014

Note: "FAIR" indicates few or no clouds below 12,000 feet
with no significant weather and/or obstructions to visibility.
 TC=TEMPERATURE CELSIUS

 * =Non NWS site. Station does not report precipitation (e.g. rain,
    snow, etc.), thunder, or fog.

DCZ001-MDZ009-015-VAZ040>042-051-053>054-111200-
WASHINGTON METRO

CITY           SKY/WX    TMP DP  RH WIND       PRES   REMARKS
WASHINGTON NAT MOSUNNY   72  64  78 NE5       30.17R
DULLES         MOSUNNY   65  63  93 NW5       30.18R
ANDREWS AFB    MOSUNNY   68  66  93 NE6       30.17R
FT BELVOIR     PTSUNNY   66  64  94 NW3       30.17R FOG
QUANTICO       PTSUNNY   68  65  90 NW6       30.17R
COLLEGE PARK*  SUNNY     68  66  94 CALM      30.17R
LEESBURG*      SUNNY     66  66 100 N5        30.19R
MANASSAS*        N/A    N/A N/A N/A MISG        N/A
GAITHERSBURG*  SUNNY     63  61  94 CALM      30.22R

$$

MDZ006>007-011-014-111200-
BALTIMORE METRO

CITY           SKY/WX    TMP DP  RH WIND       PRES   REMARKS
BWI AIRPORT    MOSUNNY   68  64  87 N3        30.16R
MD SCIENCE CTR   N/A     71  63  75 MISG      30.17R
MARTIN STATE   MOSUNNY   68  66  94 NW3       30.17R
ANNAPOLIS      PTSUNNY   71  67  87 NW6       30.16R
FORT MEADE*    SUNNY     64  63  94 CALM      30.19R

$$

MDZ012-015-019>023-111200-
MARYLAND EASTERN SHORE

CITY           SKY/WX    TMP DP  RH WIND       PRES   REMARKS
OCEAN CITY     FOG       70  68  93 N5        30.13R VSB 3/4
SALISBURY      MOSUNNY   72  68  87 CALM      30.14R FOG
BAY BRIDGE AP*   N/A     70  68  94 NE3       30.16R
CAMBRIDGE*     CLOUDY    72  68  88 N3        30.15R
EASTON*        PTSUNNY   70  70 100 N3        30.19R

$$

MDZ017>025-111200-
SOUTHERN MARYLAND

CITY           SKY/WX    TMP DP  RH WIND       PRES   REMARKS
PATUXENT RIVER PTSUNNY   72  69  90 NE7       30.14R
ST INIGOES     PTSUNNY   71  68  90 CALM      30.14R FOG
LEONARDTOWN*   CLOUDY    70  68  94 CALM      30.17R

$$

MDZ003>005-111200-
NORTH CENTRAL MARYLAND

CITY           SKY/WX    TMP DP  RH WIND       PRES   REMARKS
FREDERICK*     SUNNY     64  64 100 CALM      30.20R
HAGERSTOWN APT SUNNY     64  61  90 NW6       30.19R
WESTMINSTER*   MOSUNNY   64  63  94 CALM      30.19R FOG

$$

MDZ501>502-111200-
WESTERN MARYLAND

CITY           SKY/WX    TMP DP  RH WIND       PRES   REMARKS
OAKLAND*       CLEAR     59 N/A N/A SE5       30.26R
CUMBERLAND*    CLOUDY    63  63 100 CALM      30.26R

$$

VAZ025>031-111200-
SHENANDOAH VALLEY

CITY           SKY/WX    TMP DP  RH WIND       PRES   REMARKS
WINCHESTER*    CLOUDY    66  64  94 CALM      30.20R
STAUNTON*      CLOUDY    64  62  95 CALM      30.23R FOG

$$

WVZ021-048>050-054>055-111200-
EASTERN WEST VIRGINIA PANHANDLE

CITY           SKY/WX    TMP DP  RH WIND       PRES   REMARKS
MARTINSBURG    SUNNY     64  60  87 S3        30.20R FOG
PETERSBURG*    CLOUDY    63  58  83 CALM      30.23R

$$

VAZ036>039-050-111200-
CENTRAL FOOTHILLS

CITY           SKY/WX    TMP DP  RH WIND       PRES   REMARKS
CHARLOTTESVILL PTCLDY    65  64  97 NW3       30.18R FOG
ORANGE*        SUNNY     64  63  94 CALM      30.19R

$$

VAZ055>057-111200-
NORTH AND CENTRAL PIEDMONT

CITY           SKY/WX    TMP DP  RH WIND       PRES   REMARKS
FREDERICKSBRG* CLOUDY    69  67  94 N3        30.15R
STAFFORD*      SUNNY     65  65 100 CALM      30.20R FOG

$$

NCZ024-NYZ072-PAZ021-071-VAZ022-071-111200-
OTHER REGIONAL OBSERVATIONS

CITY           SKY/WX    TMP DP  RH WIND       PRES   REMARKS
NEW YORK CITY  MOSUNNY   72  56  57 VRB5      30.20R
PHILADELPHIA   MOSUNNY   72  62  71 N8        30.17R
PITTSBURGH     PTCLDY    62  58  86 CALM      30.19R
ROANOKE        PTCLDY    65  62  90 CALM      30.21R
RICHMOND       MOSUNNY   69  66  90 CALM      30.14S
RALEIGH        MOCLDY    70  68  93 CALM      30.14R

$$

ANZ530>537-111200-
MARINE OBSERVATIONS

STATION/POSITION TIME  TEMP    WIND        PRES
                       AIR SEA DIR/SP/G
                 (UTC) (F)     (DEG/KT/KT) (MB)
THOMAS PT LIGHT  1100   71 78   40/ 11/ 12 1021.6R
BALT KEY BRIDGE  1100   70     350/  6/  8 1021.0R
COVE POINT       1100   72      80/  5/  6 1020.7R
LEWISETTA        1100   75 80  360/  2/  3 1020.2R
SOLOMONS ISLAND  1100      79                N/A
PINEY POINT      1100           20/  8/  9   N/A

$$



USA.gov is the U.S. government's official web portal to all federal, state and local government web resources and services.